Erzurum, Turkey

12:58 AM +03 on August 24, 2017 (GMT +0300)
Erzurum

Weather History for LTCE - August, 2013

Change the Weather History Date:

Monday, August 19, 2013

  Actual Average Record
Temperature  
Mean Temperature 65 °F -  
Max Temperature 75 °F 75 °F 91 °F (2014)
Min Temperature 53 °F 48 °F 42 °F (1998)
Growing Degree Days 15 (Base 50)    
Moisture  
Dew Point 49 °F    
Average Humidity 59    
Maximum Humidity 94    
Minimum Humidity 33    
Precipitation  
Precipitation 0.03 in 0.03 in - ()
Sea Level Pressure  
Sea Level Pressure 30.03 in    
Wind  
Wind Speed 6 mph ()    
Max Wind Speed 23 mph    
Max Gust Speed 25 mph    
Visibility 6.5 miles    
Events Rain , Thunderstorm    
Averages and records for this station are not official NWS values.
T = Trace of Precipitation, MM = Missing Value Source: Averaged Metar Reports

Daily Weather History Graph

Daily Weather History Graph

Search for Another Location

Airport or City:

Trip Planner

Search our weather history database for the weather conditions in past years. The results will help you decide how hot, cold, wet, or windy it might be!

Date:

Astronomy

Aug. 19, 2013 Rise Set
Actual Time 5:30 AM EEST 7:06 PM EEST
Civil Twilight 5:02 AM EEST 7:35 PM EEST
Nautical Twilight 4:27 AM EEST 8:09 PM EEST
Astronomical Twilight 3:50 AM EEST 8:46 PM EEST
Moon 5:41 PM EEST (8/19) 3:24 AM EEST (8/19)
Length of Visible Light 14h 32m
Length of Day
13h 35m
Waxing Gibbous, 96% of the Moon is Illuminated
Aug 19
Waxing Gibbous
Aug 21
Full
Aug 28
Last Quarter
Sep 5
New
Sep 12
First Quarter

Hourly Weather History & Observations

Time (EEST) Temp. Dew Point Humidity Pressure Visibility Wind Dir Wind Speed Gust Speed Precip Events Conditions
12:20 AM 62.6 °F 51.8 °F 68% 30.01 in 6.2 mi Variable 2.3 mph - N/A   Scattered Clouds
12:50 AM 62.6 °F 50.0 °F 63% 30.01 in 6.2 mi South 3.5 mph - N/A   Scattered Clouds
1:20 AM 60.8 °F 48.2 °F 63% 30.01 in 6.2 mi WSW 6.9 mph - N/A   Scattered Clouds
1:50 AM 59.0 °F 48.2 °F 67% 30.01 in 6.2 mi NW 3.5 mph - N/A   Scattered Clouds
2:20 AM 57.2 °F 48.2 °F 72% 30.01 in 6.2 mi NNE 4.6 mph - N/A   Scattered Clouds
2:50 AM 59.0 °F 48.2 °F 67% 30.01 in 6.2 mi Variable 2.3 mph - N/A   Scattered Clouds
3:00 AM 59 °F 48 °F 57%  in 12 mi West 2.3 mph - -   Partly Cloudy
3:20 AM 59.0 °F 48.2 °F 67% 30.01 in 6.2 mi NW 4.6 mph - N/A   Scattered Clouds
3:50 AM 57.2 °F 48.2 °F 72% 30.01 in 6.2 mi WNW 5.8 mph - N/A   Scattered Clouds
4:20 AM 57.2 °F 48.2 °F 72% 30.01 in 6.2 mi West 3.5 mph - N/A   Scattered Clouds
4:50 AM 57.2 °F 48.2 °F 72% 30.01 in 6.2 mi NW 4.6 mph - N/A   Scattered Clouds
5:20 AM 55.4 °F 48.2 °F 77% 30.04 in 6.2 mi North 4.6 mph - N/A   Scattered Clouds
5:50 AM 57.2 °F 48.2 °F 72% 30.04 in 6.2 mi Variable 2.3 mph - N/A   Scattered Clouds
6:20 AM 59.0 °F 48.2 °F 67% 30.04 in 6.2 mi West 3.5 mph - N/A   Scattered Clouds
6:50 AM 59.0 °F 48.2 °F 67% 30.04 in 6.2 mi West 4.6 mph - N/A   Scattered Clouds
7:20 AM 59.0 °F 48.2 °F 67% 30.04 in 6.2 mi NW 4.6 mph - N/A   Scattered Clouds
7:50 AM 62.6 °F 50.0 °F 63% 30.04 in 6.2 mi NNE 9.2 mph - N/A   Scattered Clouds
8:20 AM 64.4 °F 50.0 °F 59% 30.04 in 6.2 mi East 6.9 mph - N/A   Scattered Clouds
8:50 AM 68.0 °F 48.2 °F 49% 30.04 in 6.2 mi NE 9.2 mph - N/A   Scattered Clouds
9:00 AM 68 °F 49 °F 39%  in 12 mi NE 9.2 mph - -   Partly Cloudy
9:20 AM 66.2 °F 48.2 °F 52% 30.04 in 6.2 mi ENE 5.8 mph - N/A   Scattered Clouds
9:50 AM 68.0 °F 50.0 °F 52% 30.04 in 6.2 mi Variable 4.6 mph - N/A   Scattered Clouds
10:20 AM 69.8 °F 48.2 °F 46% 30.04 in 6.2 mi NNE 2.3 mph - N/A   Mostly Cloudy
10:50 AM 68.0 °F 48.2 °F 49% 30.04 in 6.2 mi Variable 2.3 mph - N/A   Mostly Cloudy
10:58 AM 68.0 °F 48.2 °F 49% 30.04 in 6.2 mi West 5.8 mph - N/A Thunderstorm Thunderstorm
11:20 AM 64.4 °F 51.8 °F 64% 30.04 in 6.2 mi SSW 15.0 mph - N/A Rain , Thunderstorm Light Thunderstorms and Rain
11:50 AM 64.4 °F 50.0 °F 59% 30.04 in 6.2 mi SSE 12.7 mph - N/A Rain , Thunderstorm Light Thunderstorms and Rain
12:20 PM 68.0 °F 48.2 °F 49% 30.04 in 6.2 mi South 6.9 mph - N/A   Scattered Clouds
12:50 PM 69.8 °F 48.2 °F 46% 30.04 in 6.2 mi Variable 4.6 mph - N/A   Scattered Clouds
1:20 PM 69.8 °F 48.2 °F 46% 30.04 in 6.2 mi Variable 4.6 mph - N/A   Mostly Cloudy
1:50 PM 71.6 °F 50.0 °F 46% 30.01 in 6.2 mi NE 12.7 mph - N/A   Scattered Clouds
2:20 PM 69.8 °F 48.2 °F 46% 30.01 in 6.2 mi NE 9.2 mph - N/A   Scattered Clouds
2:50 PM 71.6 °F 48.2 °F 43% 30.01 in 6.2 mi ESE 6.9 mph - N/A   Scattered Clouds
3:00 PM 72 °F 49 °F 33%  in 12 mi ESE 6.9 mph - -   Partly Cloudy
3:07 PM 73.4 °F 48.2 °F 41% 30.01 in 6.2 mi NE 4.6 mph - N/A Thunderstorm Thunderstorm
3:20 PM 73.4 °F 46.4 °F 38% 30.01 in 6.2 mi ENE 5.8 mph - N/A   Partly Cloudy
3:50 PM 75.2 °F 46.4 °F 36% 29.98 in 6.2 mi Variable 4.6 mph - N/A   Partly Cloudy
4:20 PM 75.2 °F 46.4 °F 36% 29.98 in 6.2 mi Variable 2.3 mph - N/A   Scattered Clouds
4:50 PM 75.2 °F 44.6 °F 34% 29.98 in 6.2 mi ENE 8.1 mph - N/A   Scattered Clouds
5:20 PM 73.4 °F 44.6 °F 36% 29.98 in 6.2 mi NE 8.1 mph - N/A   Scattered Clouds
5:50 PM 71.6 °F 42.8 °F 35% 29.98 in 6.2 mi NE 15.0 mph - N/A   Scattered Clouds
6:16 PM 68.0 °F 48.2 °F 49% 30.01 in 6.2 mi NE 21.9 mph - N/A Thunderstorm Thunderstorm
6:20 PM 68.0 °F 48.2 °F 49% 30.01 in 6.2 mi ENE 21.9 mph - N/A Thunderstorm Thunderstorm
6:27 PM 68.0 °F 48.2 °F 49% 30.01 in 6.2 mi NE 23.0 mph - N/A Rain Light Rain Showers
6:50 PM 66.2 °F 50.0 °F 56% 30.04 in 6.2 mi NE 21.9 mph - N/A Rain Light Rain Showers
7:01 PM 64.4 °F 48.2 °F 56% 30.04 in 6.2 mi NE 20.7 mph - N/A   Scattered Clouds
7:20 PM 64.4 °F 48.2 °F 56% 30.04 in 6.2 mi NE 18.4 mph - N/A   Mostly Cloudy
7:34 PM 64.4 °F 48.2 °F 56% 30.04 in 6.2 mi ENE 18.4 mph - N/A Rain , Thunderstorm Light Thunderstorms and Rain
7:50 PM 64.4 °F 48.2 °F 56% 30.04 in 6.2 mi ENE 16.1 mph - N/A   Mostly Cloudy
8:04 PM 64.4 °F 48.2 °F 56% 30.04 in 6.2 mi ENE 17.3 mph - N/A Rain , Thunderstorm Light Thunderstorms and Rain
8:20 PM 59.0 °F 51.8 °F 77% 30.09 in 6.2 mi WNW 13.8 mph 25.3 mph N/A Rain , Thunderstorm Light Thunderstorms and Rain
8:38 PM 57.2 °F 51.8 °F 82% 30.09 in 6.2 mi North 8.1 mph - N/A Rain Light Rain Showers
8:50 PM 57.2 °F 51.8 °F 82% 30.09 in 6.2 mi NE 11.5 mph - N/A Rain Light Rain Showers
9:20 PM 57.2 °F 51.8 °F 82% 30.09 in 6.2 mi ESE 8.1 mph - N/A Rain Light Rain Showers
9:26 PM 57.2 °F 51.8 °F 82% 30.09 in 6.2 mi ESE 6.9 mph - N/A   Mostly Cloudy
9:50 PM 55.4 °F 51.8 °F 88% 30.09 in 6.2 mi Variable 2.3 mph - N/A   Mostly Cloudy
10:20 PM 55.4 °F 51.8 °F 88% 30.09 in 6.2 mi ESE 4.6 mph - N/A   Scattered Clouds
10:50 PM 55.4 °F 51.8 °F 88% 30.09 in 6.2 mi NE 5.8 mph - N/A   Scattered Clouds
11:20 PM 55.4 °F 51.8 °F 88% 30.09 in 6.2 mi NNW 3.5 mph - N/A   Scattered Clouds
11:50 PM 53.6 °F 51.8 °F 94% 30.09 in 6.2 mi North 4.6 mph - N/A   Scattered Clouds